Location: The Saddle
(36.8333°N, 80.3417°W)
Time: 16:12:24
(UTC-05:00)

Tiros 1 despin weight - Visible Passes

Search period start: 30 January 2023 00:00
Search period end: 09 February 2023 00:00
Orbit: 589 x 636 km, 48.2° (Epoch: 30 January)

Date Brightness Start Highest point End Pass type
(mag) Time Alt. Az. Time Alt. Az. Time Alt. Az.
30 Jan ? 19:02:17 10° W 19:06:14 29° NNW 19:08:42 18° NNE visible
30 Jan ? 20:45:33 10° NW 20:45:39 10° NW 20:45:39 10° NW visible
31 Jan ? 19:17:48 10° WNW 19:21:21 22° NNW 19:22:56 19° NNE visible
01 Feb ? 19:33:17 10° NW 19:36:34 19° N 19:37:08 19° N visible
02 Feb ? 18:05:22 10° WNW 18:09:13 26° NNW 18:13:03 10° NE visible
02 Feb ? 19:48:33 10° NW 19:51:20 19° N 19:51:20 19° N visible
03 Feb ? 18:20:53 10° WNW 18:24:22 21° N 18:27:49 10° NE visible
03 Feb ? 20:03:31 10° NW 20:05:32 18° NNW 20:05:32 18° NNW visible
04 Feb ? 18:36:18 10° NW 18:39:34 19° N 18:42:47 10° NE visible
04 Feb ? 20:18:17 10° NW 20:19:44 17° NNW 20:19:44 17° NNW visible
05 Feb ? 18:51:28 10° NW 18:54:47 19° N 18:57:01 14° NE visible
05 Feb ? 20:32:56 10° NW 20:33:58 16° NW 20:33:58 16° NW visible
06 Feb ? 19:06:22 10° NW 19:09:57 23° NNE 19:11:17 20° NE visible
06 Feb ? 20:47:34 10° NW 20:48:14 14° NW 20:48:14 14° NW visible
07 Feb ? 19:21:04 10° NW 19:25:03 29° NNE 19:25:36 29° NE visible
07 Feb ? 21:02:19 10° WNW 21:02:34 11° WNW 21:02:34 11° WNW visible
08 Feb ? 19:35:41 10° NW 19:40:00 44° NNE 19:40:00 44° NNE visible
